Location: Unspecified
(41.5516°N, 88.1098°W)
Time: 15:24:01
(UTC-05:00)

Okean 3 - Visible Passes

Search period start: 18 August 2017 00:00
Search period end: 28 August 2017 00:00
Orbit: 577 x 603 km, 82.5° (Epoch: 18 August)

Date Brightness Start Highest point End Pass type
(mag) Time Alt. Az. Time Alt. Az. Time Alt. Az.
20 Aug 5.3 20:05:00 10° NNW 20:08:54 36° W 20:12:50 10° SSW visible
21 Aug 6.1 20:13:35 10° NW 20:17:02 24° W 20:20:30 10° SW visible
22 Aug 6.5 20:22:25 10° NW 20:25:08 17° W 20:27:50 10° SW visible
23 Aug 7.0 20:31:59 10° WNW 20:33:11 11° W 20:34:22 10° W visible
